Home
Last Heard
JFindU D-Star Maps
Repeater Directory
D-Star Solutions
 
Joining The Network (Now Automated)
(Updated 01/20/2013
Japan D-Star Repeaters
 
ARVN Programimg D-Star Radios Pt 1
(ID-2820)
 
ARVN Programimg D-Star Radios Pt 2
(IC91/92 ID-800)
 
ID-8880H
IC-80AD
IC-2820

Current Time is 06/26/2019 21:51:56 UTC [Click here to disable refresh]
Callsign Time Heard Reporting Node 321 Unique callsigns heard in the last hour
IZ4YFI 06/26/19 18:46:31 UTC IR3UEF B 440 MHz Monselice (Padova) , Italy, Italy
KD4IZ 06/26/19 16:51:08 UTC REF030 C 2 Meters DVD Lawrenceville, GA, USA
IU8EKN 06/26/19 16:51:08 UTC REF080 A 1.2GHz DVD Italy
N3FCX 06/26/19 16:51:05 UTC K3PDR C 2 Meters Philadelphia, PA, USA
DO5AN 06/26/19 16:51:03 UTC DB0HRM B 440 MHz Hoher Meissner/Kassel, JO41WF, Germany
VA7AHH 06/26/19 16:51:02 UTC VE7RCK C 2 Meters Chilliwack, British Columbia, Canada
2E0ULH 06/26/19 16:50:57 UTC REF001 Dongle User DVD USA
KD7NRN 06/26/19 16:50:57 UTC REF029 Dongle User DVD UT, USA
WA9RYO 06/26/19 16:50:57 UTC REF030 Dongle User DVD Lawrenceville, GA, USA
WB2LMV 06/26/19 16:50:52 UTC REF020 A 1.2GHz DVD NJ, USA
IW8ELN M 06/26/19 16:50:51 UTC IR8UAF B 440 MHz Monte Vergine (AV), Italia, Italy
KB8ZXI 06/26/19 16:50:37 UTC REF068 B 440 MHz DVD Milan, Lombardy, Italy
KK4JPT 06/26/19 16:50:37 UTC REF001 Dongle User DVD USA
PD0GKB 06/26/19 16:50:27 UTC REF030 C 2 Meters DVD Lawrenceville, GA, USA
M0MBV 06/26/19 16:50:22 UTC REF001 Dongle User DVD USA
KA7GXP 06/26/19 16:50:22 UTC REF001 Dongle User DVD USA
N2KTO 06/26/19 16:50:17 UTC REF020 A 1.2GHz DVD NJ, USA
VE2SE 06/26/19 16:50:13 UTC VE2FCT B 440 MHz Sorel-Tracy, Quebec, Canada
EA5GVK 06/26/19 16:50:02 UTC REF075 Dongle User DVD Europe, Spain, Spain
M3OPW 06/26/19 16:49:57 UTC REF001 Dongle User DVD USA
AC4GJ 06/26/19 16:49:52 UTC REF058 Dongle User DVD Auburn, AL, USA
KI5WG 06/26/19 16:49:47 UTC REF004 B 440 MHz DVD US, USA
G0WZB 06/26/19 16:49:37 UTC REF001 Dongle User DVD USA
EA7JBK 06/26/19 16:49:27 UTC REF075 B 440 MHz DVD Europe, Spain, Spain
W8WAC D 06/26/19 16:49:27 UTC REF089 Dongle User DVD Michigan, USA
VA2RK 06/26/19 16:49:26 UTC VE2FCT B 440 MHz Sorel-Tracy, Quebec, Canada
W7ADF 06/26/19 16:49:22 UTC REF030 C 2 Meters DVD Lawrenceville, GA, USA
IZ0LDE P 06/26/19 16:49:22 UTC REF080 A 1.2GHz DVD Italy
W4MPS 06/26/19 16:49:17 UTC REF001 Dongle User DVD USA
WA0URJ 06/26/19 16:49:12 UTC REF004 B 440 MHz DVD US, USA
KB7URX 06/26/19 16:49:07 UTC REF001 Dongle User DVD USA
PA7LIM 06/26/19 16:49:07 UTC REF030 Dongle User DVD Lawrenceville, GA, USA
G3KYG 06/26/19 16:49:07 UTC REF001 Dongle User DVD USA
WW9H D 06/26/19 16:48:57 UTC REF038 Dongle User DVD Ohio, USA
M0KSP 06/26/19 16:48:31 UTC REF001 Dongle User DVD USA
DL6AAO 06/26/19 16:48:23 UTC DB0HRM B 440 MHz Hoher Meissner/Kassel, JO41WF, Germany
IV3AVQ 06/26/19 16:48:19 UTC IR3EF C 2 Meters m.te Bernadia Ud, Italy, Italy
F5IBM 06/26/19 16:48:11 UTC REF084 Dongle User DVD Unknown
G6LTT 06/26/19 16:48:06 UTC REF001 C 2 Meters DVD USA
DO3MBS 06/26/19 16:48:01 UTC REF001 Dongle User DVD USA
KN4FSN 06/26/19 16:47:58 UTC KK4GQ B 440 MHz Fayetteville, GA, USA
KN1W D 06/26/19 16:47:56 UTC REF030 Dongle User DVD Lawrenceville, GA, USA
JA1YKP 06/26/19 16:47:41 UTC REF001 Dongle User DVD USA
EA1CIU 06/26/19 16:47:36 UTC REF075 B 440 MHz DVD Europe, Spain, Spain
ZL2APD 06/26/19 16:47:36 UTC REF001 Dongle User DVD USA
VE7KNL 06/26/19 16:47:21 UTC REF016 Dongle User DVD British Columbia, Canada
MM0HCD 06/26/19 16:47:11 UTC REF050 C 2 Meters DVD Boston, MA, USA
KE0ARR 06/26/19 16:47:06 UTC REF030 C 2 Meters DVD Lawrenceville, GA, USA
W1KQ 06/26/19 16:46:45 UTC WB1GOF B 440 MHz Westford, MA, USA
WB3JUV 06/26/19 16:46:41 UTC REF004 Dongle User DVD US, USA
M1EUX 06/26/19 16:46:31 UTC REF001 Dongle User DVD USA
KC3BYF 06/26/19 16:46:26 UTC REF001 Dongle User DVD USA
K4EQX C 06/26/19 16:46:21 UTC REF030 Dongle User DVD Lawrenceville, GA, USA
TA7AGL 06/26/19 16:45:55 UTC REF081 Dongle User DVD Unknown
W3OJO 06/26/19 16:45:55 UTC REF030 Dongle User DVD Lawrenceville, GA, USA
KR4AE 06/26/19 16:45:50 UTC WB4HRO Dongle User DVD Doraville (Atlanta), GA, USA
KN4BDJ 06/26/19 16:45:25 UTC REF056 Dongle User DVD Richmond, KY, USA
KO4Q D 06/26/19 16:45:20 UTC REF004 Dongle User DVD US, USA
2E1PAW 06/26/19 16:44:59 UTC GB7TE C 2 Meters Clacton-on-sea, Essex, UK
M0HBK 06/26/19 16:44:45 UTC REF001 Dongle User DVD USA
KD9CBN 06/26/19 16:44:40 UTC W5FC B 440 MHz Dallas , TX, USA
KV5M 06/26/19 16:44:40 UTC REF001 C 2 Meters DVD USA
IW4DGS 06/26/19 16:44:35 UTC REF068 B 440 MHz DVD Milan, Lombardy, Italy
IW2CDU 06/26/19 16:44:34 UTC IR3UG C 2 Meters San Mauro delle Saline, Verona, Italy
K4COX 06/26/19 16:44:30 UTC REF056 Dongle User DVD Richmond, KY, USA
SV9K B 06/26/19 16:44:30 UTC REF045 Dongle User DVD Net-University, SZ1RSF REF045 (Server), Greece
W9IKU 06/26/19 16:44:15 UTC REF019 B 440 MHz DVD WI, USA
K4DVA 06/26/19 16:44:10 UTC REF054 Dongle User DVD Charlotte, NC, USA
N6THX 06/26/19 16:44:05 UTC KC6ACS Dongle User DVD Pomona, California, USA
M7ATE 06/26/19 16:43:55 UTC REF001 Dongle User DVD USA
ND9W 06/26/19 16:43:45 UTC REF051 Dongle User DVD Unknown
KN4FYR 06/26/19 16:43:24 UTC REF001 Dongle User DVD USA
K1KE 06/26/19 16:43:23 UTC WB1GOF C 2 Meters Westford, MA, USA
W4DBG 06/26/19 16:43:04 UTC REF090 B 440 MHz DVD Unknown
KC9MU 06/26/19 16:42:59 UTC REF024 Dongle User DVD Owosso, MI, USA
PA1ROB 06/26/19 16:42:39 UTC REF014 Dongle User DVD NV, USA
N5NIR 06/26/19 16:42:17 UTC K5CTX C 2 Meters Temple, TX, USA
G3JPJ 06/26/19 16:42:04 UTC REF030 Dongle User DVD Lawrenceville, GA, USA
W9KHZ 06/26/19 16:41:50 UTC W4DSI B 440 MHz Lexington, KY, USA
KD2DVW 06/26/19 16:41:39 UTC REF001 C 2 Meters DVD USA
JG6YCB 06/26/19 16:41:29 UTC REF081 Dongle User DVD Unknown
IZ0THD P 06/26/19 16:41:24 UTC REF080 A 1.2GHz DVD Italy
IU5HKH 06/26/19 16:41:09 UTC REF001 Dongle User DVD USA
ZS6MRK 06/26/19 16:41:04 UTC REF030 Dongle User DVD Lawrenceville, GA, USA
E29IRX 06/26/19 16:40:59 UTC E24DH Dongle User DVD Ranong, Ranong, Thailand
N5ODI 06/26/19 16:40:49 UTC W5HDR B 440 MHz Houston TMC, TX, USA
IT9FRN 06/26/19 16:40:43 UTC REF068 B 440 MHz DVD Milan, Lombardy, Italy
N3PCK 06/26/19 16:40:38 UTC REF001 Dongle User DVD USA
K4RBM 06/26/19 16:40:23 UTC REF030 Dongle User DVD Lawrenceville, GA, USA
WB9SLI D 06/26/19 16:40:13 UTC REF019 Dongle User DVD WI, USA
KI4UDZ 06/26/19 16:40:13 UTC REF054 Dongle User DVD Charlotte, NC, USA
KN4GDX 06/26/19 16:39:48 UTC REF030 Dongle User DVD Lawrenceville, GA, USA
KJ6TTR D 06/26/19 16:39:38 UTC REF030 Dongle User DVD Lawrenceville, GA, USA
AB3BO 06/26/19 16:39:38 UTC REF062 Dongle User DVD Hunt Valley, MD, USA
AF4JR 06/26/19 16:39:33 UTC REF069 C 2 Meters DVD CT, USA
ON4LJA 06/26/19 16:39:18 UTC REF084 C 2 Meters DVD Unknown
KM4BAO D 06/26/19 16:39:18 UTC REF030 Dongle User DVD Lawrenceville, GA, USA
K5IMO 06/26/19 16:39:18 UTC REF004 B 440 MHz DVD US, USA
K1CGZ 06/26/19 16:39:10 UTC KS1R B 440 MHz Brunswick, ME, USA
2E0VCU D 06/26/19 16:38:58 UTC REF001 Dongle User DVD USA
WD8IXC 06/26/19 16:38:43 UTC REF030 Dongle User DVD Lawrenceville, GA, USA
DM4YY 06/26/19 16:38:33 UTC REF001 C 2 Meters DVD USA
W8VW D 06/26/19 16:38:33 UTC REF030 Dongle User DVD Lawrenceville, GA, USA
PI1MEP 06/26/19 16:38:27 UTC REF030 Dongle User DVD Lawrenceville, GA, USA
G8BWR / 06/26/19 16:38:12 UTC REF008 B 440 MHz DVD Japan
W3DDT 06/26/19 16:38:12 UTC REF018 B 440 MHz DVD REF018, REF018, Brazil
N3GGX D 06/26/19 16:38:07 UTC REF004 Dongle User DVD US, USA
WB6DTB 06/26/19 16:38:07 UTC REF014 Dongle User DVD NV, USA
M6DDM 06/26/19 16:38:02 UTC REF008 Dongle User DVD Japan
WD0GOQ 06/26/19 16:37:42 UTC REF037 Dongle User DVD Orlando, FL, USA
DL1ESZ 06/26/19 16:37:17 UTC REF001 Dongle User DVD USA
KC8JOE 06/26/19 16:36:59 UTC W8DTW B 440 MHz Westland, MI, USA
MW0MLP 06/26/19 16:36:47 UTC REF001 C 2 Meters DVD USA
K1XAN 06/26/19 16:36:36 UTC WB1GOF C 2 Meters Westford, MA, USA
G8WPL 06/26/19 16:36:17 UTC REF001 Dongle User DVD USA
K4DJL 06/26/19 16:36:12 UTC REF058 B 440 MHz DVD Auburn, AL, USA
W4GLE 06/26/19 16:36:11 UTC REF058 B 440 MHz DVD Auburn, AL, USA
K9CEO 06/26/19 16:35:51 UTC REF020 Dongle User DVD NJ, USA
K8WF 06/26/19 16:35:46 UTC REF090 B 440 MHz DVD Unknown
KG5OJO 06/26/19 16:35:46 UTC REF004 Dongle User DVD US, USA
N9IVQ 06/26/19 16:35:41 UTC REF030 Dongle User DVD Lawrenceville, GA, USA
W7EFJ 06/26/19 16:35:36 UTC W7AES Dongle User DVD Las Vegas, NV, USA
DH9YAX 06/26/19 16:35:31 UTC REF001 Dongle User DVD USA
M3TFM 06/26/19 16:35:21 UTC REF001 Dongle User DVD USA
W9MJM M 06/26/19 16:35:14 UTC KF7CUF B 440 MHz Scottsdale, AZ, USA
K4EQX 06/26/19 16:35:11 UTC REF030 C 2 Meters DVD Lawrenceville, GA, USA
KM4WNK 06/26/19 16:34:56 UTC REF069 Dongle User DVD CT, USA
HL2DRY 06/26/19 16:34:45 UTC REF001 Dongle User DVD USA
K3RIC 06/26/19 16:34:41 UTC W3PRO B 440 MHz Salisbury, MD, USA
W7CDE D 06/26/19 16:34:35 UTC REF001 Dongle User DVD USA
W4NWT 06/26/19 16:34:35 UTC REF077 Dongle User DVD Unknown
KF0XQ 06/26/19 16:34:23 UTC W0CMD B 440 MHz Rolla, Missouri, USA
W5CBT 06/26/19 16:34:15 UTC REF033 C 2 Meters DVD Unknown
N2DGW D 06/26/19 16:34:15 UTC REF020 Dongle User DVD NJ, USA
N6DME D 06/26/19 16:33:45 UTC REF037 Dongle User DVD Orlando, FL, USA
N3HYM 06/26/19 16:33:35 UTC REF001 Dongle User DVD USA
KE8AUO 06/26/19 16:33:15 UTC REF089 Dongle User DVD Michigan, USA
KD2RMJ D 06/26/19 16:32:40 UTC REF001 Dongle User DVD USA
JR1FVK 06/26/19 16:32:40 UTC REF030 C 2 Meters DVD Lawrenceville, GA, USA
EA1PVC 06/26/19 16:32:35 UTC REF075 B 440 MHz DVD Europe, Spain, Spain
W0SBS 06/26/19 16:32:35 UTC REF029 A 1.2GHz DVD UT, USA
SQ9MYS 06/26/19 16:32:14 UTC REF032 Dongle User DVD Radom, Poland
N1MPR 06/26/19 16:32:09 UTC REF050 C 2 Meters DVD Boston, MA, USA
2E0AUI D 06/26/19 16:32:04 UTC REF001 Dongle User DVD USA
N0XIA 06/26/19 16:32:04 UTC REF037 C 2 Meters DVD Orlando, FL, USA
KC5KOH D 06/26/19 16:31:54 UTC REF030 Dongle User DVD Lawrenceville, GA, USA
2E0STJ 06/26/19 16:31:49 UTC REF001 Dongle User DVD USA
VE3JK 06/26/19 16:31:41 UTC VE3YYZ B 440 MHz Toronto, Ontario, Canada
KJ7BMK D 06/26/19 16:31:39 UTC REF030 Dongle User DVD Lawrenceville, GA, USA
NY3Y 06/26/19 16:30:44 UTC REF030 Dongle User DVD Lawrenceville, GA, USA
K4PDM 06/26/19 16:30:34 UTC REF001 Dongle User DVD USA
VK3PTT 06/26/19 16:30:31 UTC VK3RWN A 1.2GHz Melbourne, Victoria, Australia
KD2RTU 06/26/19 16:30:29 UTC REF001 Dongle User DVD USA
WA1UQO 06/26/19 16:30:09 UTC W4FJ B 440 MHz DVD Richmond, VA, USA
ZS6GS 06/26/19 16:30:09 UTC REF001 C 2 Meters DVD USA
NS3L 06/26/19 16:29:39 UTC REF009 Dongle User DVD AZ, USA
IZ8QIG 06/26/19 16:29:33 UTC REF080 Dongle User DVD Italy
K5NX 06/26/19 16:29:08 UTC REF001 C 2 Meters DVD USA
N8ASD 06/26/19 16:28:33 UTC K8DXA C 2 Meters DVD Lake Orion, MI, USA
N5UIG 06/26/19 16:28:23 UTC REF030 C 2 Meters DVD Lawrenceville, GA, USA
K4YGD 06/26/19 16:28:03 UTC REF030 Dongle User DVD Lawrenceville, GA, USA
VK5ZSW N 06/26/19 16:28:03 UTC REF001 Dongle User DVD USA
N7RJN D 06/26/19 16:27:58 UTC REF009 Dongle User DVD AZ, USA
KQ5A 06/26/19 16:27:53 UTC REF001 Dongle User DVD USA
GW0GVY 06/26/19 16:26:47 UTC REF001 Dongle User DVD USA
WB2TQE 06/26/19 16:26:37 UTC REF037 C 2 Meters DVD Orlando, FL, USA
KG7HZT 06/26/19 16:25:47 UTC REF029 Dongle User DVD UT, USA
M3EJM 06/26/19 16:25:47 UTC REF008 Dongle User DVD Japan
N4SVD 06/26/19 16:25:47 UTC REF030 Dongle User DVD Lawrenceville, GA, USA
F5HFA 06/26/19 16:24:51 UTC REF084 C 2 Meters DVD Unknown
SN6MP 06/26/19 16:24:46 UTC REF032 Dongle User DVD Radom, Poland
W1IZT 06/26/19 16:24:46 UTC REF009 Dongle User DVD AZ, USA
M7ADL D 06/26/19 16:24:36 UTC REF030 Dongle User DVD Lawrenceville, GA, USA
AF4JC 06/26/19 16:24:26 UTC REF030 C 2 Meters DVD Lawrenceville, GA, USA
IW8ELN D 06/26/19 16:24:26 UTC REF080 Dongle User DVD Italy
I0KMJ 06/26/19 16:24:06 UTC REF068 B 440 MHz DVD Milan, Lombardy, Italy
KK5H 06/26/19 16:23:51 UTC REF058 Dongle User DVD Auburn, AL, USA
VK4TUX 06/26/19 16:23:51 UTC REF029 Dongle User DVD UT, USA
N6WAS 06/26/19 16:23:46 UTC REF001 Dongle User DVD USA
KI5BHV 06/26/19 16:23:46 UTC REF048 Dongle User DVD Bossier City, LA, USA
KD9ITO 06/26/19 16:23:41 UTC REF051 C 2 Meters DVD Unknown
N2WA 06/26/19 16:23:31 UTC REF004 Dongle User DVD US, USA
G4HFG M 06/26/19 16:23:11 UTC REF001 C 2 Meters DVD USA
GB7WF 06/26/19 16:23:11 UTC REF001 Dongle User DVD USA
W7ITX 06/26/19 16:22:46 UTC REF001 Dongle User DVD USA
K1VT 06/26/19 16:22:46 UTC REF001 Dongle User DVD USA
EA7JBS 06/26/19 16:22:40 UTC REF001 Dongle User DVD USA
DO3FHS 06/26/19 16:22:35 UTC REF001 Dongle User DVD USA
W9MC 06/26/19 16:22:29 UTC W8RTL B 440 MHz Dayton, OH, USA
G7JRC D 06/26/19 16:21:50 UTC REF001 Dongle User DVD USA
ZL2GJ 06/26/19 16:21:50 UTC REF001 Dongle User DVD USA
KC4QNZ 06/26/19 16:21:15 UTC REF056 B 440 MHz DVD Richmond, KY, USA
K6PBT 06/26/19 16:21:15 UTC REF001 Dongle User DVD USA
IN3MYW 06/26/19 16:21:15 UTC REF080 A 1.2GHz DVD Italy
GB7AM 06/26/19 16:21:15 UTC REF079 Dongle User DVD Unknown
W7HNH 06/26/19 16:21:05 UTC WA7HJR B 440 MHz DVD Seattle, WA, USA
N9QXF 06/26/19 16:20:54 UTC W4LCO B 440 MHz Ft Myers, FL, USA
2E0BOU 06/26/19 16:20:39 UTC REF001 Dongle User DVD USA
EA8YV 06/26/19 16:19:49 UTC REF075 Dongle User DVD Europe, Spain, Spain
W9MNC 06/26/19 16:19:41 UTC KK4DFC C 2 Meters Ocala, Fl, USA
HS1FVL 06/26/19 16:19:34 UTC REF087 Dongle User DVD Thailand
G3TXA 06/26/19 16:19:19 UTC REF069 Dongle User DVD CT, USA
KJ7GDN 06/26/19 16:18:53 UTC REF030 Dongle User DVD Lawrenceville, GA, USA
IW9GTR 06/26/19 16:18:33 UTC REF080 A 1.2GHz DVD Italy
WP4MXB 06/26/19 16:18:23 UTC REF001 Dongle User DVD USA
W4AP 06/26/19 16:17:48 UTC REF058 Dongle User DVD Auburn, AL, USA
WD9JEN 06/26/19 16:17:25 UTC NS9RC B 440 MHz Chicago, IL, USA
W2LA 06/26/19 16:17:23 UTC REF012 A 1.2GHz DVD CA, USA
IZ7ECX M 06/26/19 16:17:08 UTC REF080 A 1.2GHz DVD Italy
M3SXA 06/26/19 16:17:03 UTC REF030 Dongle User DVD Lawrenceville, GA, USA
2E0NXK 06/26/19 16:16:48 UTC REF001 C 2 Meters DVD USA
IZ0THD 06/26/19 16:16:28 UTC REF080 Dongle User DVD Italy
KD8AMR 06/26/19 16:16:23 UTC REF001 Dongle User DVD USA
VE3UC 06/26/19 16:16:12 UTC REF001 Dongle User DVD USA
DL8UI 06/26/19 16:15:57 UTC DB0HRM B 440 MHz Hoher Meissner/Kassel, JO41WF, Germany
KF7KIN 06/26/19 16:15:52 UTC REF029 Dongle User DVD UT, USA
W9NDU 06/26/19 16:15:43 UTC NS9RC B 440 MHz Chicago, IL, USA
SR3ZX 06/26/19 16:15:17 UTC REF032 Dongle User DVD Radom, Poland
N9LXP D 06/26/19 16:15:02 UTC REF030 Dongle User DVD Lawrenceville, GA, USA
W5MZU 06/26/19 16:14:52 UTC REF004 B 440 MHz DVD US, USA
M6JPW 06/26/19 16:14:43 UTC GB7DB B 440 MHz Woburn Sands, Buckinghamshire, UK
K4RMM 06/26/19 16:14:22 UTC REF077 Dongle User DVD Unknown
KN4GAM 06/26/19 16:14:22 UTC REF030 Dongle User DVD Lawrenceville, GA, USA
N8ZGQ 06/26/19 16:14:16 UTC REF030 C 2 Meters DVD Lawrenceville, GA, USA
KD9AC 06/26/19 16:13:26 UTC REF001 Dongle User DVD USA
N2XDD 06/26/19 16:13:06 UTC REF001 Dongle User DVD USA
KK4QKL A 06/26/19 16:13:01 UTC REF030 C 2 Meters DVD Lawrenceville, GA, USA
VE2ZBR 06/26/19 16:12:25 UTC VE2RTO B 440 MHz Mont-Orford, Quebec, Canada
PU2SYJ 06/26/19 16:11:55 UTC REF018 C 2 Meters DVD REF018, REF018, Brazil
IK2YYL 06/26/19 16:11:36 UTC IR2UEZ B 440 MHz Gallarate (VA), Lombardia, Italy
KB1YAC 06/26/19 16:10:50 UTC REF069 Dongle User DVD CT, USA
E23YPF 06/26/19 16:10:40 UTC REF087 C 2 Meters DVD Thailand
AA6DB 06/26/19 16:10:20 UTC REF001 C 2 Meters DVD USA
KK4FKH 06/26/19 16:10:06 UTC WX4GPB C 2 Meters Stone Mountain, GA, USA
WD9GYM 06/26/19 16:09:40 UTC REF051 Dongle User DVD Unknown
K2EJ 06/26/19 16:09:30 UTC REF062 Dongle User DVD Hunt Valley, MD, USA
KJ4VO 06/26/19 16:09:30 UTC WB4HRO Dongle User DVD Doraville (Atlanta), GA, USA
GB7BM 06/26/19 16:09:15 UTC REF001 Dongle User DVD USA
N2LRB 06/26/19 16:09:10 UTC REF030 C 2 Meters DVD Lawrenceville, GA, USA
VA6HEM 06/26/19 16:09:05 UTC REF025 Dongle User DVD Washington D.C., WA, USA
E23PKK 06/26/19 16:09:04 UTC E24DB C 2 Meters Rangsit, Pathumthani, Thailand
KB2JYN 06/26/19 16:09:00 UTC REF030 C 2 Meters DVD Lawrenceville, GA, USA
HS1ZHY 06/26/19 16:08:56 UTC E24DB C 2 Meters Rangsit, Pathumthani, Thailand
BG4ACY 06/26/19 16:08:39 UTC REF001 Dongle User DVD USA
EB7HOW 06/26/19 16:08:24 UTC REF001 Dongle User DVD USA
M3LIU D 06/26/19 16:08:04 UTC REF001 Dongle User DVD USA
EC5ZY 06/26/19 16:07:59 UTC REF001 Dongle User DVD USA
N8KDF 06/26/19 16:07:49 UTC REF030 C 2 Meters DVD Lawrenceville, GA, USA
W3DLD 06/26/19 16:07:39 UTC REF063 Dongle User DVD Pittsburgh, PA, USA
VR2YOO 06/26/19 16:07:14 UTC REF001 Dongle User DVD USA
K1NDG 06/26/19 16:06:44 UTC REF030 Dongle User DVD Lawrenceville, GA, USA
K3ME 06/26/19 16:06:29 UTC REF030 Dongle User DVD Lawrenceville, GA, USA
K2DED 06/26/19 16:06:23 UTC REF001 Dongle User DVD USA
M3OHN 06/26/19 16:06:23 UTC REF001 Dongle User DVD USA
EA5GTU 06/26/19 16:06:08 UTC REF075 B 440 MHz DVD Europe, Spain, Spain
KD9DKD 06/26/19 16:05:53 UTC REF001 Dongle User DVD USA
DF5JZ 06/26/19 16:05:23 UTC REF001 Dongle User DVD USA
W4UDT 06/26/19 16:05:08 UTC REF090 B 440 MHz DVD Unknown
WA8UAA 06/26/19 16:04:53 UTC REF029 Dongle User DVD UT, USA
N3KV 06/26/19 16:04:48 UTC REF004 C 2 Meters DVD US, USA
2E0XPR 06/26/19 16:04:18 UTC REF001 Dongle User DVD USA
WA7ERY 06/26/19 16:04:03 UTC REF053 Dongle User DVD Minneapolis, MN, USA
EA7KFF 06/26/19 16:03:58 UTC REF001 Dongle User DVD USA
N9NYX 06/26/19 16:03:58 UTC REF051 Dongle User DVD Unknown
IZ0RDM D 06/26/19 16:03:38 UTC REF080 Dongle User DVD Italy
NM8O 06/26/19 16:03:35 UTC W8CMH C 2 Meters Columbus, OH, USA
KG6UFA 06/26/19 16:03:02 UTC W7VOI Dongle User DVD Boise, Idaho, USA
KI7NDZ 06/26/19 16:02:42 UTC W7VOI Dongle User DVD Boise, Idaho, USA
IU2KAM 06/26/19 16:02:39 UTC IR2UEZ B 440 MHz Gallarate (VA), Lombardia, Italy
2E0SHT 06/26/19 16:02:37 UTC REF038 Dongle User DVD Ohio, USA
N0TN D 06/26/19 16:01:37 UTC REF001 Dongle User DVD USA
ZL2HM 06/26/19 16:01:37 UTC REF001 Dongle User DVD USA
K4FIO 06/26/19 16:01:27 UTC REF030 C 2 Meters DVD Lawrenceville, GA, USA
WA1WOK 06/26/19 16:01:17 UTC REF030 Dongle User DVD Lawrenceville, GA, USA
KM4DJO B 06/26/19 16:01:17 UTC REF004 Dongle User DVD US, USA
KN4JEK 06/26/19 16:01:02 UTC REF058 B 440 MHz DVD Auburn, AL, USA
K2MCI 06/26/19 16:00:57 UTC REF020 A 1.2GHz DVD NJ, USA
G0GGU 06/26/19 16:00:51 UTC REF030 Dongle User DVD Lawrenceville, GA, USA
E20TWR 06/26/19 16:00:51 UTC REF087 C 2 Meters DVD Thailand
KJ6CDA 06/26/19 16:00:46 UTC REF030 Dongle User DVD Lawrenceville, GA, USA
N8QLT 06/26/19 16:00:46 UTC REF029 Dongle User DVD UT, USA
WA5HRO 06/26/19 16:00:46 UTC REF030 Dongle User DVD Lawrenceville, GA, USA
KN4JDJ 06/26/19 16:00:41 UTC REF058 B 440 MHz DVD Auburn, AL, USA
W7WJY 06/26/19 16:00:26 UTC REF001 Dongle User DVD USA
KA8DJN 06/26/19 16:00:11 UTC REF030 Dongle User DVD Lawrenceville, GA, USA
SP9XWY 06/26/19 16:00:11 UTC REF032 Dongle User DVD Radom, Poland
G1KEA 06/26/19 15:59:56 UTC REF030 C 2 Meters DVD Lawrenceville, GA, USA
KI6UJH D 06/26/19 15:59:46 UTC REF030 Dongle User DVD Lawrenceville, GA, USA
G3VSH D 06/26/19 15:59:20 UTC REF004 Dongle User DVD US, USA
G4RIQ 06/26/19 15:58:50 UTC REF001 Dongle User DVD USA
ZS6GGR 06/26/19 15:58:40 UTC REF030 Dongle User DVD Lawrenceville, GA, USA
KG5TVX 06/26/19 15:58:35 UTC REF030 Dongle User DVD Lawrenceville, GA, USA
KF0LF 06/26/19 15:58:35 UTC REF009 Dongle User DVD AZ, USA
IT9BLT 06/26/19 15:58:14 UTC REF068 B 440 MHz DVD Milan, Lombardy, Italy
W8DR 06/26/19 15:57:49 UTC W8DTW Dongle User DVD Westland, MI, USA
K6FEL 06/26/19 15:57:29 UTC REF030 Dongle User DVD Lawrenceville, GA, USA
WB9NTO 06/26/19 15:57:28 UTC WW9RS C 2 Meters Dunnville, Wisconsin, USA
W5SLS 06/26/19 15:57:24 UTC REF001 Dongle User DVD USA
KJ4I 06/26/19 15:56:49 UTC REF058 Dongle User DVD Auburn, AL, USA
HS8AFA 06/26/19 15:56:44 UTC REF001 C 2 Meters DVD USA
KN4LER 06/26/19 15:56:24 UTC REF030 Dongle User DVD Lawrenceville, GA, USA
IZ7ECX 06/26/19 15:56:14 UTC REF080 Dongle User DVD Italy
IZ8UMO 06/26/19 15:56:04 UTC REF080 A 1.2GHz DVD Italy
IK8JHL M 06/26/19 15:55:43 UTC REF080 A 1.2GHz DVD Italy
K4IM 06/26/19 15:55:43 UTC REF038 C 2 Meters DVD Ohio, USA
KB5QAT 06/26/19 15:55:28 UTC REF030 Dongle User DVD Lawrenceville, GA, USA
KD8SEP 06/26/19 15:55:21 UTC W8RNL B 440 MHz Hamilton, OH, USA
JR4EUD A 06/26/19 15:54:58 UTC REF081 Dongle User DVD Unknown
K4YJ 06/26/19 15:54:46 UTC W8BAP C 2 Meters Chillicothe, OH, USA
ZL2HB 06/26/19 15:54:33 UTC REF001 Dongle User DVD USA
KR4MT 06/26/19 15:54:33 UTC REF056 B 440 MHz DVD Richmond, KY, USA
2E0EXV 06/26/19 15:54:33 UTC REF001 C 2 Meters DVD USA
KQ4G 06/26/19 15:53:47 UTC REF001 Dongle User DVD USA
G0FVX 06/26/19 15:53:12 UTC REF001 Dongle User DVD USA
K5SOC 06/26/19 15:52:54 UTC KE5RCS B 440 MHz Walburg, TX, USA
IK8UHA 06/26/19 15:52:32 UTC REF080 A 1.2GHz DVD Italy
G1LEV 06/26/19 15:52:12 UTC REF001 Dongle User DVD USA
KI4QPL D 06/26/19 15:51:51 UTC REF030 Dongle User DVD Lawrenceville, GA, USA
W3CJW 06/26/19 15:51:51 UTC REF001 Dongle User DVD USA
K4YAY 06/26/19 15:51:51 UTC REF077 C 2 Meters DVD Unknown
N4NYA D 06/26/19 15:51:21 UTC REF001 Dongle User DVD USA

© Copyright D-StarUsers.org, All Rights Reserved.
Last Heard and DStarMonitor Disclaimer